Regional Weather Roundup
Issued by NWS

Home | Current Version | Previous Version | Graphics & Text | Print | Product List | Glossary On
Versions: 1 2 3 4 5 6 7 8 9 10 11 12 13 14 15 16 17 18 19 20 21 22 23 24 25 26 27 28 29 30 31 32 33 34 35 36 37 38 39 40 41 42 43 44 45 46 47 48 49 50
000
ASUS45 KCYS 262110
RWRWY

WYOMING REGIONAL WEATHER ROUNDUP
NATIONAL WEATHER SERVICE CHEYENNE WY
300 PM MDT TUE MAY 26 2015

NOTE:  "FAIR" INDICATES FEW OR NO CLOUDS BELOW 12,000 FEET
WITH NO SIGNIFICANT WEATHER AND/OR OBSTRUCTIONS TO VISIBILITY.

WYZ001-262200-
YELLOWSTONE NATIONAL PARK

CITY           SKY/WX    TMP DP  RH WIND       PRES   REMARKS
LK YELLOWSTONE   N/A     50  37  61 CALM      30.10F
W YELLOWSTONE  NOT AVBL

$$
WYZ002>013-054>058-071-098>099-262200-
NORTHERN WYOMING

CITY           SKY/WX    TMP DP  RH WIND       PRES   REMARKS
JACKSON        LGT RAIN  48  45  87 SW5       30.08R
CODY           FAIR      66  43  42 SE9       29.92F
GREYBULL       PTSUNNY   74  39  28 CALM      29.88F
WORLAND        FAIR      68  44  42 W5        29.91F
SHERIDAN       CLOUDY    66  49  54 SE8       29.96R
BUFFALO        FAIR      62  47  57 NW14      29.99S
GILLETTE       FAIR      67  45  45 S6        29.94S
HULETT         CLOUDY    66  50  55 SE9       29.98R
NEWCASTLE      FAIR      66  46  48 SE8       29.99S

$$
WYZ014>020-022>026-101>103-262200-
CENTRAL WYOMING

CITY           SKY/WX    TMP DP  RH WIND       PRES   REMARKS
BIG PINEY      PTSUNNY   56  43  61 SW13      30.08S
PINEDALE       CLOUDY    54  37  54 N8        30.08R
DUBOIS         CLOUDY    54  34  47 W14G20    30.04S
LANDER         PTSUNNY   63  47  55 S15       29.96S
RIVERTON       FAIR      66  40  38 CALM      29.97F
CASPER         FAIR      67  43  41 NE8       29.97F
DOUGLAS        FAIR      65  48  54 S14       29.99S

$$
WYZ021-027>030-104>119-262200-
SOUTHERN WYOMING

CITY           SKY/WX    TMP DP  RH WIND       PRES   REMARKS
EVANSTON       CLOUDY    50  46  86 SW14G20   30.10F
KEMMERER       MOCLDY    54  41  62 W10G18    30.10S
FORT BRIDGER   LGT RAIN  50  50 100 SE3       30.13R
ROCK SPRINGS   FAIR      60  39  45 W9        30.05F
DIXON          CLOUDY    61  39  44 S10G16    30.08F THUNDER
RAWLINS        FAIR      63  37  38 SW9G20    30.05F
SARATOGA       FAIR      64  32  29 W10       30.07S
LARAMIE        FAIR      59  36  42 SW6       30.07S
CHEYENNE       FAIR      61  45  55 SE8       30.05F
TORRINGTON     FAIR      68  47  46 S10       29.97S
PINE BLUFFS    FAIR      61  43  51 CALM      30.04R

$$



USA.gov is the U.S. government's official web portal to all federal, state and local government web resources and services.